Volver al catálogo

GEOSAT

ActivoCienciaLEO
NORAD 15595·PAYLOAD·🇺🇸 United States

Lanzado Mar 13, 1985 desde Vandenberg Space Force Base

Loading…

Próximos Pases (próximas 24 horas)

TLE

ActualizadoSource: Space-Track

Época: Sep 14, 2026, 11:39 UTC

1 15595U 85021A   26257.48580750  .00000051  00000-0  59200-4 0  9996
2 15595 108.0470 267.2925 0002559 272.5114  87.5735 14.40003759175622

Sigue GEOSAT en tiempo real con AllMySat

Download on the App Store